sat.trackr.live / text

‹ back to catalog

STARLINK-11732 [DTC]

NORAD 64370 · 2025-127A

PAYLOAD ACTIVE UNKNOWN

§ Identity

Operator
Country
US
Launch date
2025-06-13
Launch site
AFETR
Launch vehicle
Mass (kg)
RCS (m²)

Purposes: comms

External: N2YO · Heavens-Above · Gunter

§ Orbital elements

Epoch: 2026-05-24T22:31:15.553344Z

Period
91.66 min
Inclination
42.9999°
Eccentricity
0.0003903
Mean motion
15.70967832 rev/d
Perigee alt
353.5 km
Apogee alt
358.8 km
Semi-major
6,734.3 km
B*
1.2205e-3
RAAN
344.9989°
Arg perigee
257.7230°
Mean anomaly
102.3201°
Rev number
5,549

§ Raw data

STARLINK-11732 [DTC]1 64370U 25127A   26144.93837446  .00160112  00000+0  12205-2 0  99902 64370  42.9999 344.9989 0003903 257.7230 102.3201 15.70967832 55491

JSON: /api/v1/satellites/64370 · /tle

For live sub-satellite position, see the globe view (requires WebGL).

§ Visibility from observer

Set your observer location to see the next 7 days of passes ≥ 10°. The values pass through the URL so the page stays shareable.

No JS? Fill the form by hand. The geolocation button needs JavaScript.